Content
SEND FEEDBACK

Daily
Averages
Monthly
Summary
United States of America

MELROSE, MASSACHUSETTS


Home > North America > United States > Massachusetts
Elevation: 170 feet     Latitude: 42 27N     Longitude: 071 05W

WEATHER
 
SELECT A DAY
Number of Records: 202,471;   Date Range: 1/1/95 - 7/22/14
 
SHARE

PRINT THIS DATA

[ ← Previous Day ]
WEATHER ALMANAC - APRIL 4, 2013
[ Next Day → ]
[ °C ]   °F
Weather ElementAverageHighLow
Temperature43 °F55.9 °F (4:54 pm)32 °F (4:54 am)
Dewpoint15 °F25 °F (11:54 pm)8.1 °F (2:54 pm)
Humidity35.1 %55 % (11:54 pm)16 % (2:54 pm)
Barometer30.17 in30.30 in (7:54 am)30.06 in (6:54 pm)
Wind Speed13.4 mph19.6 mph (8:54 pm)
Wind Gust28.8 mph (4:54 pm)
Weather ElementAverage
Visibility10 mi
Wind DirectionWSW (256.1 °)

Weather ElementTotal
Precipitation---
Heating Degree Days21.1 (Base 65)
Averaged from 23 records on April 4, 2013
WEATHER CONDITIONS BREAKOUT
WIND DIRECTION BREAKOUT
WEATHER BY HOUR - APRIL 4, 2013
[ °C ]   °F
Local TimeTemperatureDewpointHumidityBarometerVisibilityWind DirectionWind SpeedGust SpeedPrecipitationEventsConditions
1:54 AM34.0 °F14.0 °F44 %30.19 in10.0 miWest (280°)10.4 mph19.6 mphClear
2:54 AM33.1 °F14.0 °F46 %30.20 in10.0 miWNW (290°)10.4 mphClear
3:54 AM33.1 °F14.0 °F46 %30.20 in10.0 miWNW (290°)9.2 mphClear
4:54 AM32.0 °F14.0 °F48 %30.22 in10.0 miWNW (290°)10.4 mphClear
5:54 AM33.1 °F14.0 °F46 %30.25 in10.0 miWest (280°)11.5 mphClear
6:54 AM33.1 °F15.1 °F48 %30.27 in10.0 miWest (280°)10.4 mphClear
7:54 AM34.0 °F15.1 °F46 %30.30 in10.0 miWest (280°)15.0 mphClear
8:54 AM37.0 °F14.0 °F39 %30.30 in10.0 miNW (310°)13.8 mphClear
9:54 AM41.0 °F10.9 °F29 %30.29 in10.0 miWNW (290°)13.8 mphPartly Cloudy
10:54 AM44.1 °F10.9 °F26 %30.27 in10.0 miWNW (290°)13.8 mphPartly Cloudy
11:54 AM46.0 °F10.9 °F24 %30.24 in10.0 miWSW (250°)9.2 mph20.7 mphPartly Cloudy
12:54 PM48.9 °F9.0 °F20 %30.22 in10.0 miWest (270°)12.7 mph0.00 inPartly Cloudy
1:54 PM52.0 °F10.0 °F19 %30.18 in10.0 miWSW (240°)11.5 mph18.4 mphPartly Cloudy
2:54 PM54.0 °F8.1 °F16 %30.15 in10.0 miWest (270°)11.5 mphPartly Cloudy
3:54 PM55.0 °F10.0 °F17 %30.12 in10.0 miSW (230°)10.4 mph18.4 mphPartly Cloudy
4:54 PM55.9 °F10.9 °F17 %30.08 in10.0 miSW (230°)17.3 mph28.8 mphPartly Cloudy
5:54 PM55.0 °F14.0 °F20 %30.07 in10.0 miWSW (240°)13.8 mphClear
6:54 PM50.0 °F21.9 °F33 %30.06 in10.0 miSSW (200°)15.0 mphPartly Cloudy
7:54 PM48.0 °F21.0 °F34 %30.08 in10.0 miSW (220°)18.4 mphClear
8:54 PM45.0 °F23.0 °F42 %30.10 in10.0 miSSW (210°)19.6 mphPartly Cloudy
9:54 PM43.0 °F23.0 °F45 %30.09 in10.0 miSW (220°)15.0 mph24.2 mphClear
10:54 PM42.1 °F23.0 °F47 %30.07 in10.0 miSSW (210°)17.3 mph25.3 mphPartly Cloudy
11:54 PM39.9 °F25.0 °F55 %30.06 in10.0 miSW (220°)18.4 mphPartly Cloudy
Hourly data recorded from KBOS, located miles away from Melrose, Massachusetts







STORIES FROM OUR PARTNERS